This is the latest recevied weather packets stored in our database for station/object WC4PEM-9. If no packets are shown the sender has not sent any weather packets the latest 1 day(s).
| Time | Temp. | Humidity | Pressure | Rain* | Wind** | Luminosity | Snow |
|---|---|---|---|---|---|---|---|
| 1777984408 | 19.44° C | 92% | 1015.7 hPa | 0 mm | 0.45 m/s, 131° | - | - |
| 1777984108 | 19.44° C | 93% | 1015.5 hPa | 0 mm | 0.89 m/s, 151° | - | - |
| 1777983808 | 18.89° C | 94% | 1015.6 hPa | 0 mm | 0.89 m/s, 34° | - | - |
| 1777983692 | 18.89° C | 95% | 1015.7 hPa | 0 mm | 0.45 m/s, 126° | - | - |
| 1777983519 | 18.33° C | 95% | 1015.9 hPa | 0 mm | 0.45 m/s, 178° | - | - |
| 1777983508 | 18.89° C | 95% | 1015.7 hPa | 0 mm | 0.45 m/s, 126° | - | - |
| 1777983208 | 18.33° C | 95% | 1015.9 hPa | 0 mm | 0.45 m/s, 178° | - | - |
| 1777982908 | 17.78° C | 96% | 1015.7 hPa | 0 mm | 0.45 m/s, 61° | - | - |
| 1777982735 | 17.22° C | 96% | 1015.6 hPa | 0 mm | 0.45 m/s, 51° | - | - |
| 1777982608 | 17.78° C | 96% | 1015.5 hPa | 0 mm | 0.45 m/s, 9° | - | - |
| 1777982314 | 16.67° C | 96% | 1015.5 hPa | 0 mm | 0.45 m/s, 142° | - | - |
| 1777982308 | 17.22° C | 96% | 1015.6 hPa | 0 mm | 0.45 m/s, 51° | - | - |
| 1777982008 | 16.67° C | 96% | 1015.5 hPa | 0 mm | 0.45 m/s, 142° | - | - |
| 1777981980 | 16.11° C | 95% | 1015.3 hPa | 0 mm | 0.45 m/s, 137° | - | - |
| 1777981708 | 16.11° C | 95% | 1015.3 hPa | 0 mm | 0.45 m/s, 137° | - | - |
| 1777981474 | 16.11° C | 95% | 1015.4 hPa | 0 mm | 0.89 m/s, 316° | - | - |
| 1777981408 | 16.11° C | 95% | 1015.2 hPa | 0 mm | 0.89 m/s, 137° | - | - |
| 1777981108 | 16.11° C | 95% | 1015.4 hPa | 0 mm | 0.89 m/s, 316° | - | - |
| 1777980808 | 15.56° C | 95% | 1015.3 hPa | 0 mm | 0.45 m/s, 342° | - | - |
| 1777980508 | 15.56° C | 95% | 1015.2 hPa | 0 mm | 0.45 m/s, 93° | - | - |
| 1777980208 | 15.56° C | 95% | 1015.1 hPa | 0 mm | 0.45 m/s, 309° | - | - |
| 1777980197 | 15.56° C | 94% | 1014.9 hPa | 0 mm | 0.45 m/s, 325° | - | - |
| 1777979908 | 15.56° C | 94% | 1014.9 hPa | 0 mm | 0.45 m/s, 325° | - | - |
| 1777979608 | 15° C | 94% | 1014.7 hPa | 0 mm | 0.45 m/s, 120° | - | - |
| 1777979308 | 15° C | 94% | 1014.6 hPa | 0 mm | 0.45 m/s, 137° | - | - |
* Rain latest hour (hover to see other rain measurements)
** Current wind speed in m/s (hover to see current wind gust speed)